MDT,Max TemperatureF,Mean TemperatureF,Min TemperatureF,Max Dew PointF,MeanDew PointF,Min DewpointF,Max Humidity, Mean Humidity, Min Humidity, Max Sea Level PressureIn, Mean Sea Level PressureIn, Min Sea Level PressureIn, Max VisibilityMiles, Mean VisibilityMiles, Min VisibilityMiles, Max Wind SpeedMPH, Mean Wind SpeedMPH, Max Gust SpeedMPH,PrecipitationIn, CloudCover, Events, WindDirDegrees
2013-9-1,83,72,60,56,50,44,69,49,27,30.26,30.19,30.13,10,10,10,17,11,23,0.00,2,,103
2013-9-2,93,74,55,57,52,43,88,50,18,30.18,30.11,30.03,10,10,10,15,7,22,0.00,0,,140
2013-9-3,97,78,59,53,49,44,65,37,16,30.13,30.09,30.05,10,10,7,15,6,20,0.00,0,,107
2013-9-4,97,80,63,58,50,43,68,40,16,30.21,30.16,30.11,10,10,10,23,5,28,0.00,0,Thunderstorm,301
2013-9-5,97,79,61,58,52,44,78,46,16,30.23,30.17,30.10,10,10,10,15,7,,0.00,0,,116
2013-9-6,99,80,62,53,45,36,62,33,11,30.17,30.12,30.04,10,10,10,20,7,26,0.00,0,,261
2013-9-7,97,77,57,51,45,36,73,37,13,30.15,30.09,30.01,10,10,7,10,6,,0.00,0,,190
2013-9-8,98,80,61,47,42,35,50,29,11,30.06,29.97,29.85,10,10,10,16,5,23,0.00,0,,202
2013-9-9,89,74,60,59,52,47,93,53,24,30.10,29.97,29.89,10,10,2,37,13,51,0.00,2,Rain-Thunderstorm,22
2013-9-10,75,66,58,59,58,56,96,75,53,30.23,30.16,30.07,10,10,10,13,5,,0.00,6,Rain,24
2013-9-11,70,64,59,63,60,57,94,85,73,30.27,30.24,30.19,10,9,3,17,8,22,0.00,7,Rain,66
2013-9-12,65,62,60,62,60,58,96,92,84,30.33,30.28,30.23,10,7,1,18,11,25,0.00,8,Rain,78
2013-9-13,70,64,59,62,60,57,96,87,67,30.23,30.07,29.97,10,9,3,21,15,29,0.00,7,Rain,123
2013-9-14,82,69,56,61,57,51,96,77,35,30.03,29.96,29.89,10,8,0,23,7,32,0.00,4,Fog-Rain-Thunderstorm,37
2013-9-15,60,57,53,58,54,51,96,89,80,30.32,30.21,30.03,10,9,2,21,10,29,0.00,7,Rain,62
2013-9-16,71,62,53,55,53,52,95,80,55,30.31,30.20,30.09,10,10,2,17,9,23,0.00,5,,133
2013-9-17,86,68,49,60,51,41,97,65,20,30.10,29.97,29.85,10,7,0,10,6,,0.00,1,Fog,179
2013-9-18,88,71,54,55,50,42,92,58,20,29.90,29.85,29.78,10,10,7,17,7,25,0.00,1,Rain-Thunderstorm,247
2013-9-19,68,59,50,55,43,37,87,55,34,30.20,30.09,29.91,10,10,2,24,9,31,0.00,1,,4
2013-9-20,75,58,41,50,42,36,91,58,25,30.22,30.14,30.05,10,10,10,9,4,,0.00,0,,82
2013-9-21,84,66,47,51,46,33,94,57,16,30.06,29.95,29.83,10,10,4,13,6,17,0.00,0,,173
2013-9-22,85,67,49,54,48,39,92,59,20,29.82,29.71,29.58,10,10,7,38,7,47,0.00,2,Rain-Thunderstorm,246
2013-9-23,64,56,46,54,49,45,95,81,50,30.06,29.76,29.53,10,8,2,39,16,53,0.00,6,Rain,329
2013-9-24,74,57,40,47,41,36,97,61,25,30.17,30.05,29.90,10,10,1,15,5,22,0.00,0,,180
2013-9-25,85,64,42,48,40,30,87,50,15,29.89,29.68,29.50,10,10,10,24,7,32,0.00,0,,120
2013-9-26,72,58,44,51,44,40,87,59,37,29.82,29.73,29.59,10,10,7,22,13,31,0.00,0,,29
2013-9-27,54,48,41,50,43,39,93,86,74,30.01,29.85,29.72,10,10,4,17,13,23,0.00,6,Rain,13
2013-9-28,66,51,36,40,33,28,97,56,24,30.16,30.10,30.01,10,10,10,10,5,,0.00,0,,253
2013-9-29,75,56,36,43,35,24,91,52,14,30.13,30.00,29.89,10,10,10,10,6,,0.00,0,,238
2013-9-30,84,64,44,44,37,30,83,44,14,29.94,29.87,29.78,10,10,7,14,6,18,0.00,0,,203